Change the Weather History Date:

Saturday, January 3, 2015

  Actual Average Record
Temperature  
Mean Temperature 38 °F -  
Max Temperature 42 °F 40 °F 71 °F (2004)
Min Temperature 35 °F 27 °F 1 °F (2014)
Degree Days  
Heating Degree Days 26    
Moisture  
Dew Point 39 °F    
Average Humidity 100    
Maximum Humidity 100    
Minimum Humidity 99    
Precipitation  
Precipitation 0.40 in - - ()
Sea Level Pressure  
Sea Level Pressure 29.85 in    
Wind  
Wind Speed 4 mph (SW)    
Max Wind Speed 17 mph    
Max Gust Speed 29 mph    
Visibility 7 miles    
Events Rain    
Averages and records for this station are not official NWS values.
T = Trace of Precipitation, MM = Missing Value Source: NWS Daily Summary

Daily Weather History Graph

Daily Weather History Graph

Search for Another Location

Airport or City:

Trip Planner

Search our weather history database for the weather conditions in past years. The results will help you decide how hot, cold, wet, or windy it might be!

Date:

Astronomy

Jan. 03, 2015 Rise Set
Actual Time 7:24 AM CST 5:02 PM CST
Civil Twilight 6:54 AM CST 5:31 PM CST
Nautical Twilight 6:22 AM CST 6:04 PM CST
Astronomical Twilight 5:50 AM CST 6:35 PM CST
Moon 4:09 PM CST (1/3) 5:47 AM CST (1/3)
Length of Visible Light 10h 36m
Length of Day
9h 37m
Waxing Gibbous, 98% of the Moon is Illuminated
Jan 3
Waxing Gibbous
Jan 4
Full
Jan 13
Last Quarter
Jan 20
New
Jan 26
First Quarter

Hourly Weather History & Observations

Time (CST) Temp. Windchill Dew Point Humidity Pressure Visibility Wind Dir Wind Speed Gust Speed Precip Events Conditions
12:15 AM 37.4 °F - 37.4 °F 100% 29.98 in 10.0 mi South 1.2 mph - N/A   Overcast
12:20 AM 37.4 °F 34.9 °F 37.4 °F 100% 29.98 in 10.0 mi SSE 3.5 mph - N/A   Light Drizzle
12:34 AM 37.4 °F 34.9 °F 37.4 °F 100% 29.98 in 10.0 mi SW 3.5 mph - N/A   Overcast
12:41 AM 37.4 °F - 37.4 °F 100% 29.97 in 9.0 mi Variable 2.3 mph - N/A   Light Drizzle
12:46 AM 37.4 °F 34.9 °F 37.4 °F 100% 29.97 in 4.0 mi SSE 3.5 mph - N/A Rain Rain
12:56 AM 37.4 °F - 37.4 °F 100% 29.96 in 4.0 mi SSE 1.2 mph - N/A Rain Rain
1:08 AM 37.4 °F - 37.4 °F 100% 29.97 in 7.0 mi SSW 1.2 mph - N/A Rain Light Rain
1:13 AM 37.4 °F - 37.4 °F 100% 29.97 in 10.0 mi Calm Calm - N/A Rain Light Rain
1:18 AM 37.4 °F - 37.4 °F 100% 29.97 in 10.0 mi Calm Calm - N/A   Light Drizzle
1:38 AM 37.4 °F 34.9 °F 37.4 °F 100% 29.95 in 4.0 mi ESE 3.5 mph - N/A Rain Light Rain
1:43 AM 37.4 °F 33.8 °F 37.4 °F 100% 29.95 in 5.0 mi ESE 4.6 mph - N/A Rain Light Rain
1:51 AM 37.4 °F 33.8 °F 37.4 °F 100% 29.95 in 10.0 mi ESE 4.6 mph - N/A   Overcast
1:58 AM 36.9 °F 34.3 °F 36.9 °F 100% 29.97 in 10.0 mi ESE 3.5 mph - 0.04 in   Overcast
2:09 AM 37.4 °F - 37.4 °F 100% 29.94 in 7.0 mi ESE 2.3 mph - N/A Rain Light Rain
2:58 AM 36.9 °F - 36.9 °F 100% 29.96 in 5.0 mi Calm Calm - 0.03 in   Light Drizzle
3:13 AM 37.4 °F 34.9 °F 37.4 °F 100% 29.92 in 4.0 mi East 3.5 mph - N/A Rain Light Rain
3:23 AM 37.4 °F 33.8 °F 37.4 °F 100% 29.90 in 4.0 mi ENE 4.6 mph - N/A Rain Light Rain
3:28 AM 37.4 °F 32.1 °F 37.4 °F 100% 29.88 in 3.0 mi ENE 6.9 mph - N/A Rain Light Rain
3:38 AM 37.4 °F 33.8 °F 37.4 °F 100% 29.88 in 5.0 mi NNE 4.6 mph - N/A Rain Light Rain
3:58 AM 36.5 °F 33.9 °F 36.5 °F 100% 29.92 in 10.0 mi ENE 3.5 mph - 0.07 in Rain Light Rain
4:14 AM 37.4 °F - 37.4 °F 100% 29.89 in 10.0 mi North 2.3 mph - N/A   Overcast
4:31 AM 37.4 °F 34.9 °F 37.4 °F 100% 29.88 in 2.5 mi NNE 3.5 mph - N/A   Light Drizzle
4:36 AM 37.4 °F 33.8 °F 37.4 °F 100% 29.87 in 1.8 mi NNE 4.6 mph - N/A   Light Drizzle
4:46 AM 35.6 °F 31.7 °F 35.6 °F 100% 29.86 in 1.0 mi NNE 4.6 mph - N/A   Light Drizzle
4:51 AM 35.6 °F 30.7 °F 35.6 °F 100% 29.85 in 1.2 mi NE 5.8 mph - N/A   Light Drizzle
4:56 AM 35.6 °F 30.7 °F 35.6 °F 100% 29.84 in 1.8 mi NE 5.8 mph - N/A   Light Drizzle
4:58 AM 35.6 °F 30.7 °F 35.6 °F 100% 29.87 in 1.8 mi NE 5.8 mph - 0.00 in   Light Drizzle
4:59 AM 35.6 °F 30.7 °F 35.6 °F 100% 29.84 in 2.0 mi NE 5.8 mph - N/A   Overcast
5:04 AM 35.6 °F 30.7 °F 35.6 °F 100% 29.84 in 4.0 mi NE 5.8 mph - N/A   Overcast
5:16 AM 35.6 °F 30.7 °F 35.6 °F 100% 29.85 in 6.0 mi NE 5.8 mph - N/A   Light Drizzle
5:36 AM 35.6 °F - 35.6 °F 100% 29.86 in 2.5 mi ESE 2.3 mph - N/A Rain Light Rain
5:46 AM 37.4 °F 32.8 °F 37.4 °F 100% 29.86 in 3.0 mi ESE 5.8 mph - N/A Rain Light Rain
5:51 AM 37.4 °F 32.1 °F 37.4 °F 100% 29.86 in 3.0 mi SE 6.9 mph - N/A Rain Light Rain
5:56 AM 37.4 °F 32.8 °F 37.4 °F 100% 29.85 in 4.0 mi ESE 5.8 mph - N/A Rain Light Rain
5:58 AM 37.4 °F 32.8 °F 37.4 °F 100% 29.88 in 4.0 mi ESE 5.8 mph - 0.06 in Rain Light Rain
6:08 AM 37.4 °F 33.8 °F 37.4 °F 100% 29.84 in 5.0 mi East 4.6 mph - N/A Rain Light Rain
6:13 AM 37.4 °F 33.8 °F 37.4 °F 100% 29.85 in 6.0 mi ESE 4.6 mph - N/A Rain Light Rain
6:43 AM 37.4 °F 32.1 °F 37.4 °F 100% 29.82 in 7.0 mi East 6.9 mph - N/A Rain Light Rain
6:53 AM 37.4 °F 32.1 °F 37.4 °F 100% 29.83 in 10.0 mi ESE 6.9 mph - N/A Rain Light Rain
6:58 AM 36.9 °F 30.7 °F 36.9 °F 100% 29.86 in 9.0 mi ESE 8.1 mph - 0.12 in Rain Light Rain
7:43 AM 37.4 °F 30.8 °F 37.4 °F 100% 29.80 in 7.0 mi ESE 9.2 mph - N/A Rain Light Rain
7:58 AM 37.4 °F 30.3 °F 37.4 °F 100% 29.80 in 10.0 mi East 10.4 mph - 0.07 in Rain Light Rain
8:03 AM 37.4 °F 29.3 °F 37.4 °F 100% 29.76 in 10.0 mi ESE 12.7 mph - N/A   Mostly Cloudy
8:13 AM 37.4 °F 28.5 °F 37.4 °F 100% 29.73 in 2.5 mi ESE 15.0 mph - N/A   Light Drizzle
8:18 AM 37.4 °F 28.2 °F 37.4 °F 100% 29.73 in 7.0 mi ESE 16.1 mph - N/A Rain Light Rain
8:50 AM 39.2 °F 30.2 °F 39.2 °F 100% 29.79 in 10.0 mi West 17.3 mph 23.0 mph N/A   Overcast
8:58 AM 38.8 °F 32.1 °F 38.8 °F 100% 29.83 in 10.0 mi West 10.4 mph 28.8 mph 0.00 in   Overcast
9:08 AM 39.2 °F 35.0 °F 39.2 °F 100% 29.81 in 10.0 mi West 5.8 mph - N/A   Overcast
9:43 AM 39.2 °F 33.6 °F 39.2 °F 100% 29.82 in 10.0 mi West 8.1 mph - N/A   Overcast
9:58 AM 39.0 °F 34.8 °F 39.0 °F 100% 29.85 in 10.0 mi West 5.8 mph - N/A   Overcast
10:33 AM 39.2 °F - 39.2 °F 100% 29.80 in 4.0 mi West 2.3 mph - N/A   Overcast
10:57 AM 39.2 °F 35.9 °F 39.2 °F 100% 29.80 in 7.0 mi WNW 4.6 mph - N/A   Light Drizzle
10:58 AM 39.2 °F 35.9 °F 39.2 °F 100% 29.83 in 7.0 mi WNW 4.6 mph - N/A   Light Drizzle
11:15 AM 39.2 °F - 39.2 °F 100% 29.79 in 10.0 mi West 2.3 mph - N/A   Overcast
11:48 AM 39.2 °F 37.0 °F 39.2 °F 100% 29.80 in 9.0 mi West 3.5 mph - N/A   Light Drizzle
11:58 AM 39.7 °F 37.6 °F 39.7 °F 100% 29.83 in 8.0 mi WSW 3.5 mph - 0.00 in   Light Drizzle
12:23 PM 39.2 °F 34.2 °F 39.2 °F 100% 29.80 in 8.0 mi SW 6.9 mph - N/A   Light Drizzle
12:26 PM 41.0 °F 35.8 °F 41.0 °F 100% 29.80 in 9.0 mi WSW 8.1 mph - N/A   Overcast
12:58 PM 40.8 °F 37.8 °F 40.8 °F 100% 29.82 in 10.0 mi West 4.6 mph - 0.00 in   Overcast
1:58 PM 41.5 °F - 41.5 °F 100% 29.80 in 10.0 mi Variable 2.3 mph - N/A   Overcast
2:58 PM 42.1 °F 40.2 °F 42.1 °F 100% 29.80 in 10.0 mi WSW 3.5 mph - N/A   Overcast
3:03 PM 42.8 °F 40.1 °F 42.8 °F 100% 29.77 in 10.0 mi WSW 4.6 mph - N/A   Overcast
3:08 PM 42.8 °F - 42.8 °F 100% 29.77 in 10.0 mi Variable 2.3 mph - N/A   Overcast
3:58 PM 41.9 °F - 41.9 °F 100% 29.81 in 10.0 mi West 2.3 mph - N/A   Overcast
4:03 PM 42.8 °F 41.1 °F 42.8 °F 100% 29.78 in 10.0 mi West 3.5 mph - N/A   Overcast
4:58 PM 41.7 °F - 41.7 °F 100% 29.81 in 10.0 mi West 2.3 mph - N/A   Overcast
5:43 PM 41.0 °F - 41.0 °F 100% 29.77 in 10.0 mi Variable 1.2 mph - N/A   Overcast
5:58 PM 41.5 °F 39.6 °F 41.5 °F 100% 29.82 in 10.0 mi West 3.5 mph - N/A   Overcast
6:58 PM 41.5 °F 39.6 °F 41.5 °F 100% 29.83 in 10.0 mi West 3.5 mph - N/A   Overcast
7:28 PM 41.0 °F - 41.0 °F 100% 29.79 in 10.0 mi Calm Calm - N/A   Overcast
7:58 PM 41.0 °F - 41.0 °F 100% 29.82 in 8.0 mi Calm Calm - N/A   Overcast
8:31 PM 41.0 °F - 41.0 °F 100% 29.80 in 4.0 mi Calm Calm - N/A   Light Drizzle
8:58 PM 40.6 °F 37.5 °F 40.6 °F 100% 29.83 in 7.0 mi West 4.6 mph - 0.00 in   Light Drizzle
9:08 PM 41.0 °F 37.1 °F 41.0 °F 100% 29.80 in 7.0 mi West 5.8 mph - N/A   Light Drizzle
9:38 PM 41.0 °F 37.1 °F 41.0 °F 100% 29.81 in 7.0 mi Variable 5.8 mph - N/A   Light Drizzle
9:48 PM 41.0 °F 39.0 °F 41.0 °F 100% 29.81 in 7.0 mi Variable 3.5 mph - N/A   Light Drizzle
9:55 PM 39.2 °F 34.2 °F 39.2 °F 100% 29.82 in 8.0 mi Variable 6.9 mph - N/A   Overcast
9:58 PM 40.1 °F 36.1 °F 40.1 °F 100% 29.85 in 8.0 mi West 5.8 mph - 0.01 in   Overcast
10:02 PM 39.2 °F 33.6 °F 39.2 °F 100% 29.82 in 8.0 mi West 8.1 mph - N/A   Light Drizzle
10:07 PM 39.2 °F 34.2 °F 39.2 °F 100% 29.82 in 7.0 mi West 6.9 mph - N/A   Light Drizzle
10:58 PM 39.7 °F 34.3 °F 39.6 °F 99% 29.87 in 10.0 mi West 8.1 mph - 0.00 in   Light Drizzle
11:28 PM 39.2 °F 33.0 °F 39.2 °F 100% 29.86 in 10.0 mi WSW 9.2 mph 18.4 mph N/A   Light Drizzle
11:29 PM 39.2 °F 31.6 °F 39.2 °F 100% 29.86 in 10.0 mi West 12.7 mph 18.4 mph N/A   Overcast
11:49 PM 39.2 °F 32.5 °F 39.2 °F 100% 29.86 in 10.0 mi West 10.4 mph 19.6 mph N/A   Overcast
11:54 PM 39.2 °F 32.5 °F 39.2 °F 100% 29.86 in 10.0 mi West 10.4 mph - N/A   Overcast
11:58 PM 39.2 °F 32.5 °F 39.2 °F 100% 29.89 in 10.0 mi West 10.4 mph - 0.00 in   Overcast